Tracking 19475 objects as of 18-Jan-2019
HD Live streaming from Space Station
objects crossing your sky now

COSMOS 1741

Track COSMOS 1741 now!
10-day predictions
COSMOS 1741 is classified as:


NORAD ID: 16681
Int'l Code: 1986-030A
Perigee: 775.3 km
Apogee: 802.6 km
Inclination: 74.0 °
Period: 100.5 minutes
Semi major axis: 7159 km
RCS: 1.9539 m2 (large)
Launch date: April 17, 1986
Source: Commonwealth of Independent States (former USSR) (CIS)
Launch site: PLESETSK MISSILE AND SPACE COMPLEX (PKMTR)
aabbcc
Your satellite tracking list
Your tracking list is empty




NASA's NSSDC Master Catalog

Two Line Element Set (TLE):
1 16681U 86030A   19017.38745037 -.00000011  00000-0  53734-5 0  9994
2 16681  74.0254 320.3618 0019028 175.0600 185.0743 14.32974098711563
Source of the keplerian elements: AFSPC